Regional Weather Roundup
Issued by NWS

Home | Current Version | Previous Version | Text Only | Print | Product List | Glossary On
Versions: 1 2 3 4 5 6 7 8 9 10 11 12 13 14 15 16 17 18 19 20 21 22 23 24 25 26 27 28 29 30 31 32 33 34 35 36 37 38 39 40 41 42
000
ASUS46 KSEW 221410
RWRWA

WASHINGTON REGIONAL WEATHER ROUNDUP
NATIONAL WEATHER SERVICE SEATTLE WA
700 AM PDT WED OCT 22 2014

NOTE:"FAIR" INDICATES FEW OR NO CLOUDS BELOW 12,000 FEET WITH NO
SIGNIFICANT WEATHER AND/OR OBSTRUCTIONS TO VISIBILITY.

WAZ505-507>509-221500-
SEATTLE, TACOMA, EVERETT, AND VICINITY

CITY           SKY/WX    TMP DP  RH WIND       PRES   REMARKS
EVERETT        LGT RAIN  53  52  96 S6        29.69R FOG
BOEING FIELD   RAIN      57  54  88 S7        29.69R
RENTON         LGT RAIN  56  54  93 SE6       29.69R FOG
SEATAC AIRPORT LGT RAIN  55  54  94 S12       29.70R
JBLM-MCCHORD   LGT RAIN  55  55  99 S8        29.70R
PUYALLUP       NOT AVBL
JBLM-FT LEWIS  LGT RAIN  55  55 100 S10       29.69R
TACOMA NARROWS LGT RAIN  56  53  90 S15       29.69R
$$

WAZ001-503-506-510-514-515-221500-
NORTH INTERIOR

CITY           SKY/WX    TMP DP  RH WIND       PRES   REMARKS
BELLINGHAM     LGT RAIN  56  51  84 SE20G29   29.61F
FRIDAY HARBOR  CLOUDY    53  52  96 S10G17    29.64R
EASTSOUND      CLOUDY    55  54  94 S9G20     29.61R
PORT ANGELES   CLOUDY    54  52  93 CALM      29.63R
NAS WHIDBEY    CLOUDY    57  52  83 SE23G36   29.63S
BURLINGTON     CLOUDY   N/A N/A N/A SE12G18   29.66R
$$

WAZ020-022-039-040-504-511-512-221500-
SOUTHWEST INTERIOR

CITY           SKY/WX    TMP DP  RH WIND       PRES   REMARKS
SHELTON        CLOUDY    54  52  93 SE6       29.65F
OLYMPIA        LGT RAIN  55  53  93 S15       29.69F FOG
CHEHALIS       DRIZZLE   55  55 100 S10G20    29.71R
KELSO          CLOUDY    57  50  77 SE15G26   29.76F
VANCOUVER      LGT RAIN  59  51  75 SE8       29.77F
SCAPPOOSE, OR  LGT RAIN  57  52  83 S9        29.76S
PORTLAND, OR   LGT RAIN  59  53  80 SE13      29.78F
$$

WAZ021-516-517-221500-
WASHINGTON COAST

CITY           SKY/WX    TMP DP  RH WIND       PRES   REMARKS
FORKS          CLEAR     52  51  97 SE3       29.63R
HOQUIAM        CLOUDY    58  56  93 SW10      29.67R
ASTORIA, OR    LGT RAIN  58  55  90 S15G28    29.68S FOG
$$

WAZ019-023-024-040-518-519-221500-
CASCADE MOUNTAINS AND COLUMBIA GORGE

CITY           SKY/WX    TMP DP  RH WIND       PRES   REMARKS
STAMPEDE PASS  NOT AVBL
TROUTDALE, OR  LGT RAIN  56  52  86 NE6       29.78F
THE DALLES, OR CLOUDY    53  48  83 NW7       29.84R
$$

WAZ026-027-041>044-520-521-221500-
EAST SLOPES

CITY           SKY/WX    TMP DP  RH WIND       PRES   REMARKS
OMAK           RAIN      47  45  93 S8        29.83S
WENATCHEE      CLOUDY    51  41  68 SE10      29.80F
ELLENSBURG     CLOUDY    53  42  66 S6        29.81R
YAKIMA         CLOUDY    54  43  66 CALM      29.83R
$$

WAZ028-034-035-221500-
COLUMBIA BASIN

CITY           SKY/WX    TMP DP  RH WIND       PRES   REMARKS
EPHRATA        CLOUDY    48  45  89 N8        29.83F
MOSES LAKE     CLOUDY    50  43  77 SE12      29.83F
PASCO          CLOUDY    55  44  66 E9        29.84F
HERMISTON, OR  MOCLDY    49  43  80 E3        29.84F
$$

WAZ036>038-221500-
NORTHEAST WASHINGTON

CITY           SKY/WX    TMP DP  RH WIND       PRES   REMARKS
SPOKANE GEIGER PTCLDY    45  38  76 SE10      29.91S
SPOKANE FELTS  CLOUDY    47  40  76 NE5       29.92F
FAIRCHILD AFB  MOCLDY    44  38  78 SE9       29.90F
COEURDALENE,ID PTCLDY    36  34  93 NE5       29.94S
DEER PARK      CLOUDY    33  32  96 NW5       29.92F
$$

WAZ029>033-221500-
SOUTHEAST WASHINGTON

CITY           SKY/WX    TMP DP  RH WIND       PRES   REMARKS
PULLMAN        PTCLDY    43  38  82 E16       29.96F
LEWISTON, ID   PTCLDY    45  40  82 SE6       29.97S
WALLA WALLA    CLOUDY    63  35  35 S15       29.86F
PENDLETON, OR  CLOUDY    57  37  47 SE8       29.87S
$$



USA.gov is the U.S. government's official web portal to all federal, state and local government web resources and services.